SL-16 DEB, 22606

Orbit data source: Space-Track

SL-16 DEB, 22606 is space debris in LEO originally from a launch on Fri, 26 Mar 1993 UTC launched from the Tyuratam Missile And Space Complex (TTMTR). Debris objects in space refer to the collection of defunct objects orbiting the Earth. Examples of debris include non-operational satellites, rocket bodies, and fragments generated from explosions, collisions, or faulty payload assembly.

Loading next visibility...
Identifier
22606, 1993-016Q
Orbit
LEO
Country
Flag of CISCIS
Related business
Manufacturer
Unknown
Mission
Spacecraft
Bus & Motor
Unknown
Mass
Unknown
Launch date (UTC)
1993-03-26 (33 years ago)
Launch vehicle
Unknown
Launch site
Tyuratam Missile And Space Complex (TTMTR)
Object type
Payload
Rocket body
Debris
Shape & HBR
Unknown shape, 0.1 m
Radar Cross Section
Small (<0.1 m²)

Expand to show TLE details & history
Last TLE update: 14 hours ago

TLE from 14 hours ago
0 SL-16 DEB
1 22606U 93016Q   25289.09623830  .00000618  00000-0  50274-3 0  9998
2 22606  70.9992 287.3897 0145505 163.4979 277.5083 13.88934567645390
Epoch: 2025-10-16T02:18Z
TLE epoch observation values (Epoch: 2025-10-16T02:18:34.989Z)
Latitude
68.41115°
Longitude
-72.15919°
Altitude
931.286 km
Speed
7.399 km/s
True Right ascension
23h 09m 23s
True Declination
68° 17' 46"
Sunlit
Object was in daylight at epoch
Visualization orbit readout
Latitude
Unknown
Longitude
Unknown
Altitude
Unknown
Speed
Unknown
Apparent Right ascension
Unknown
Apparent Declination
Unknown
Sunlit
N/A
Visualization observer readout
Local Sidereal Time
11:27:20
Azimuth
Unknown
Elevation
Unknown
Doppler factor
Unknown
Orbital elements
Apogee altitude
1,036.659 km
Perigee altitude
823.975 km
Semi-major axis
7,308.454 km
Eccentricity
0.01455
Inclination
70.9992°
RAAN
287.3897°
Arg. of periapsis
163.4979°
True anomaly
275.85152°
Mean anomaly
277.5083°
Eccentric anomaly
276.68028°
Mean motion
3.4738 °/min
Orbital period
103.63 mins
BSTAR
0.00050274
Loading maneuver chart data...
Computing Atmospheric mass density...
Loading historical data...
Loading historical data...
Loading historical data...
Loading historical data...
Loading historical data...
Loading historical data...
Loading historical data...

Documentation

Showing up to 5 results
|